Ana Sayfa
METAR-TAF:

METAR-TAF

Havaalanları :

Orange Municipal Airport

Orange, Massachusetts, Amerika Birleşik Devletleri

Enlem: 42-34-18N, Boylam: 072-16-39W, yükseklik: 169 m

Güncel hava durumu gözlemi

Rapor saat 21:52 UTC de 19 dakika önce yapıldı.
Rüzgar kuzeydan 5 kt
Sıcaklık -2°C
Nem 26%
Basınç 1033 hPa
Görüş mesafesi: 16.1 km
Açık gökyüzü

METAR: KORE 162152Z AUTO 35005KT 10SM CLR M02/M19 A3049 RMK AO2 SLP333 T10171189

Saat: 17:11 (22:11 UTC)


TAF: eksik

4.000'den fazla havaalanı için hava durumu gözlemleri ve tahminleri (METAR ve TAF raporları).

Kullanılabilir istasyonlar harita üzerinde sarı ve kırmızı noktalarla gösterilir.

İstasyonun adını görmek için fareyi noktanın üzerinde gezdirin.

Sonrasında hava gözlem ve tahminlerini görmek için tıklayın.

Haritayı değiştirmek için: yaklaştırmak için siyah artı işaretli yeşil düğmeye ve uzaklaştırmak için de eksi işaretli düğmeye hızla tıklayın; bitişik haritalar için yeşil okları kullanın.


METAR-TAF: